M I D A S
Marine Information and Data Acquisition System
Tripno 1760 of the Zeeleeuw from 2009-06-19 06:15:55 to 2009-06-19 16:13:22
Back to CruiseResearch ActivitiesStationsMapUnderway DataData graphs

EquipmentUnitsComments
TimeDGPSUTC
LatitudeDGPSDM.mWGS84
LongitudeDGPSDM.mWGS84
SpeedMeteo Stationm/sRelative wind speed
DirectionMeteo StationdegRelative wind direction
TemperatureMeteo Stationdeg CelciusAir temperature
PressureMeteo StationPaAtmospheric pressure
HumidityMeteo Station%Relative humidity
Missing or incorrect values are displayed as -999
Metereological data collected by the RV Zeeleeuw from 2009-06-19 06:19:04 to 2009-06-19 16:24:32
Time Latitude Longitude Speed Direction Temperature Pressure Humidity
2009-06-19 06:20 51°13.681 2°55.885 4 21 15.2 101790 72
2009-06-19 06:21 51°13.691 2°55.803 3.8 21 15.3 101790 70
2009-06-19 06:22 51°13.691 2°55.75 5.5 21 15.2 101790 70
2009-06-19 06:23 51°13.699 2°55.765 3.9 21 15.2 101790 69
2009-06-19 06:24 51°13.723 2°55.75 8.6 20 15.2 101790 68
2009-06-19 06:25 51°13.817 2°55.649 8.9 333 15.1 101770 69
2009-06-19 06:26 51°13.955 2°55.537 6.5 320 15 101760 68
2009-06-19 06:27 51°14.118 2°55.423 14.9 27 14.9 101770 70
2009-06-19 06:28 51°14.268 2°55.256 15 320 14.9 101750 72
2009-06-19 06:29 51°14.403 2°55.068 14.3 318 14.8 101740 74
2009-06-19 06:30 51°14.547 2°54.893 13.9 27 14.7 101690 73
2009-06-19 06:31 51°14.695 2°54.733 15.5 322 14.7 101720 75
2009-06-19 06:32 51°14.77 2°54.478 14.6 330 14.6 101740 73
2009-06-19 06:33 51°14.805 2°54.2 15.7 330 14.6 101750 74
2009-06-19 06:34 51°14.852 2°53.924 16.4 330 14.5 101750 71
2009-06-19 06:35 51°14.906 2°53.652 16.5 331 14.5 101750 73
2009-06-19 06:36 51°14.962 2°53.387 16.2 331 14.5 101750 72
2009-06-19 06:37 51°15.021 2°53.115 14.2 333 14.5 101760 71
2009-06-19 06:38 51°15.08 2°52.845 17.5 333 14.4 101760 71
2009-06-19 06:39 51°15.135 2°52.577 15.9 331 14.4 101760 73
2009-06-19 06:40 51°15.194 2°52.308 13.7 330 14.5 101750 74
2009-06-19 06:41 51°15.252 2°52.04 14.1 332 14.5 101770 74
2009-06-19 06:42 51°15.312 2°51.771 16.3 329 14.4 101750 71
2009-06-19 06:43 51°15.372 2°51.506 16.6 331 14.4 101760 72
2009-06-19 06:44 51°15.415 2°51.235 15.1 331 14.4 101760 74
2009-06-19 06:45 51°15.454 2°50.964 16.7 333 14.4 101770 73
2009-06-19 06:46 51°15.491 2°50.69 15.2 333 14.4 101760 72
2009-06-19 06:47 51°15.531 2°50.42 16.1 333 14.4 101770 72
2009-06-19 06:48 51°15.57 2°50.147 12.3 338 14.4 101770 71
2009-06-19 06:49 51°15.608 2°49.871 15.3 332 14.4 101780 72
2009-06-19 06:50 51°15.647 2°49.602 15.2 330 14.4 101790 71
2009-06-19 06:51 51°15.685 2°49.333 14.3 334 14.5 101780 74
2009-06-19 06:52 51°15.722 2°49.063 15.1 334 14.5 101760 73
2009-06-19 06:53 51°15.758 2°48.794 13.7 336 14.4 101770 72
2009-06-19 06:54 51°15.794 2°48.528 15.7 332 14.4 101770 73
2009-06-19 06:55 51°15.835 2°48.26 16.5 330 14.4 101740 73
2009-06-19 06:56 51°15.876 2°47.988 13.9 332 14.4 101770 73
2009-06-19 06:57 51°15.917 2°47.712 14.3 333 14.4 101770 73
2009-06-19 06:58 51°15.955 2°47.45 14.9 332 14.4 101760 74
2009-06-19 06:59 51°15.996 2°47.186 16.5 333 14.4 101770 71
2009-06-19 07:00 51°16.046 2°46.921 13.5 333 14.4 101770 72
2009-06-19 07:01 51°16.098 2°46.656 17 332 14.5 101770 76
2009-06-19 07:02 51°16.146 2°46.395 14.5 332 14.4 101750 71
2009-06-19 07:03 51°16.2 2°46.137 15.3 330 14.3 101780 72
2009-06-19 07:04 51°16.275 2°45.888 12.9 326 14.3 101780 72
2009-06-19 07:05 51°16.357 2°45.645 17.4 324 14.4 101750 75
2009-06-19 07:06 51°16.46 2°45.415 15.8 325 14.3 101760 72
2009-06-19 07:07 51°16.562 2°45.198 17 326 14.3 101760 73
2009-06-19 07:08 51°16.663 2°44.979 16.3 327 14.3 101770 72
2009-06-19 07:09 51°16.764 2°44.753 14.2 327 14.2 101760 72
2009-06-19 07:10 51°16.866 2°44.528 16.6 328 14.2 101770 73
2009-06-19 07:11 51°16.974 2°44.311 16.6 326 14.2 101750 72
2009-06-19 07:12 51°17.084 2°44.092 16.9 327 14.2 101780 71
2009-06-19 07:13 51°17.195 2°43.875 13.9 326 14.2 101770 73
2009-06-19 07:14 51°17.308 2°43.664 15.7 327 14.2 101770 71
2009-06-19 07:15 51°17.418 2°43.45 12.7 329 14.2 101780 72
2009-06-19 07:16 51°17.527 2°43.239 15 329 14.2 101790 72
2009-06-19 07:17 51°17.636 2°43.035 13 325 14.2 101780 73
2009-06-19 07:18 51°17.748 2°42.833 13.5 328 14.3 101760 74
2009-06-19 07:19 51°17.861 2°42.623 17.5 324 14.3 101760 74
2009-06-19 07:20 51°17.976 2°42.4 15.8 328 14.3 101760 75
2009-06-19 07:21 51°18.084 2°42.185 14.6 327 14.2 101760 74
2009-06-19 07:22 51°18.195 2°41.962 12.5 329 14.2 101760 72
2009-06-19 07:23 51°18.306 2°41.745 14 328 14.2 101790 73
2009-06-19 07:24 51°18.416 2°41.533 13.9 324 14.2 101770 73
2009-06-19 07:25 51°18.527 2°41.321 13.8 327 14.3 101790 77
2009-06-19 07:26 51°18.639 2°41.107 14 328 14.2 101790 76
2009-06-19 07:27 51°18.753 2°40.892 17.4 325 14.1 101770 72
2009-06-19 07:28 51°18.864 2°40.688 12.6 331 14.1 101790 73
2009-06-19 07:29 51°18.983 2°40.472 15 326 14.1 101780 74
2009-06-19 07:30 51°19.096 2°40.264 15.4 326 14.1 101770 74
2009-06-19 07:31 51°19.209 2°40.054 16 326 14.1 101780 74
2009-06-19 07:32 51°19.324 2°39.837 14.4 325 14.1 101760 72
2009-06-19 07:33 51°19.443 2°39.611 13.8 326 14.1 101790 74
2009-06-19 07:34 51°19.557 2°39.396 17.9 329 14.1 101790 74
2009-06-19 07:35 51°19.671 2°39.177 15 327 14.1 101800 75
2009-06-19 07:36 51°19.784 2°38.957 15.3 331 14.1 101790 75
2009-06-19 07:37 51°19.899 2°38.741 17.7 333 14.1 101790 74
2009-06-19 07:38 51°20.013 2°38.521 17.1 331 14.1 101810 73
2009-06-19 07:39 51°20.124 2°38.306 18.1 328 14.1 101810 73
2009-06-19 07:40 51°20.234 2°38.092 13.9 329 14.1 101800 75
2009-06-19 07:41 51°20.346 2°37.877 13.2 332 14.1 101820 74
2009-06-19 07:42 51°20.457 2°37.67 16.7 329 14 101810 72
2009-06-19 07:43 51°20.569 2°37.457 13.4 328 14 101790 74
2009-06-19 07:44 51°20.68 2°37.247 16 327 14 101800 74
2009-06-19 07:45 51°20.799 2°37.028 16.8 328 14 101790 75
2009-06-19 07:46 51°20.914 2°36.824 13.2 328 14.1 101810 76
2009-06-19 07:47 51°21.043 2°36.636 12.5 328 14 101790 73
2009-06-19 07:48 51°21.18 2°36.47 16.2 323 14.1 101790 75
2009-06-19 07:49 51°21.327 2°36.309 12.9 323 14 101800 75
2009-06-19 07:50 51°21.474 2°36.15 13.5 320 14 101800 74
2009-06-19 07:51 51°21.62 2°35.987 15.8 320 14 101800 76
2009-06-19 07:52 51°21.774 2°35.822 15.6 325 14.1 101820 79
2009-06-19 07:53 51°21.937 2°35.694 12.7 317 14 101810 76
2009-06-19 07:54 51°22.102 2°35.57 12.9 321 14.1 101790 78
2009-06-19 07:55 51°22.258 2°35.451 14.1 320 14 101800 75
2009-06-19 07:56 51°22.423 2°35.323 14.5 321 14 101790 75
2009-06-19 07:57 51°22.581 2°35.196 14 323 14 101790 75
2009-06-19 07:58 51°22.741 2°35.071 16 319 14 101810 77
2009-06-19 07:59 51°22.899 2°34.944 15 317 14 101790 75
2009-06-19 08:00 51°23.062 2°34.814 13.2 319 14 101780 76
2009-06-19 08:01 51°23.23 2°34.684 14.7 317 14 101770 76
2009-06-19 08:02 51°23.393 2°34.577 17.4 25 14 101770 75
2009-06-19 08:03 51°23.566 2°34.467 12.7 319 13.9 101790 72
2009-06-19 08:04 51°23.736 2°34.357 13.2 319 14 101780 75
2009-06-19 08:05 51°23.907 2°34.25 16.3 319 14 101800 75
2009-06-19 08:06 51°24.077 2°34.141 14.3 317 14 101760 75
2009-06-19 08:07 51°24.25 2°34.039 14.9 318 13.9 101780 74
2009-06-19 08:08 51°24.425 2°33.943 15.2 317 14 101800 76
2009-06-19 08:09 51°24.599 2°33.855 13.4 317 13.9 101790 74
2009-06-19 08:10 51°24.771 2°33.763 18.4 317 13.9 101780 76
2009-06-19 08:11 51°24.946 2°33.668 16 317 13.9 101780 74
2009-06-19 08:12 51°25.123 2°33.576 14.6 315 13.9 101780 75
2009-06-19 08:13 51°25.299 2°33.486 13.2 321 14 101800 77
2009-06-19 08:14 51°25.466 2°33.398 16.1 320 13.9 101800 74
2009-06-19 08:15 51°25.64 2°33.303 16.2 317 14 101800 76
2009-06-19 08:16 51°25.811 2°33.207 13.5 317 14 101780 74
2009-06-19 08:17 51°25.988 2°33.109 18.4 317 14 101790 73
2009-06-19 08:18 51°26.167 2°33.011 12.3 323 14 101800 74
2009-06-19 08:19 51°26.338 2°32.917 14.6 319 13.9 101790 71
2009-06-19 08:20 51°26.514 2°32.811 16.6 321 14 101780 71
2009-06-19 08:21 51°26.689 2°32.694 14.6 317 14 101790 72
2009-06-19 08:22 51°26.862 2°32.58 16.7 322 14 101770 72
2009-06-19 08:23 51°27.034 2°32.476 14.4 320 14.1 101780 72
2009-06-19 08:24 51°27.209 2°32.368 17.2 322 14.1 101790 72
2009-06-19 08:25 51°27.381 2°32.258 17 320 14 101800 72
2009-06-19 08:26 51°27.554 2°32.145 16.6 318 14 101810 72
2009-06-19 08:27 51°27.719 2°32.034 12.9 316 14 101760 73
2009-06-19 08:28 51°27.885 2°31.931 13 319 14 101800 73
2009-06-19 08:29 51°28.05 2°31.833 12.9 317 14 101790 72
2009-06-19 08:30 51°28.21 2°31.739 18.3 321 14 101800 72
2009-06-19 08:31 51°28.377 2°31.638 17 321 14 101760 70
2009-06-19 08:32 51°28.547 2°31.533 14.1 323 14 101780 72
2009-06-19 08:33 51°28.721 2°31.419 14.4 321 14 101810 72
2009-06-19 08:34 51°28.892 2°31.306 13.4 323 14 101790 69
2009-06-19 08:35 51°29.063 2°31.199 15 320 14 101790 68
2009-06-19 08:36 51°29.236 2°31.09 14.6 319 14 101800 69
2009-06-19 08:37 51°29.408 2°30.978 15.6 322 14 101780 71
2009-06-19 08:38 51°29.585 2°30.863 17.1 321 14 101800 70
2009-06-19 08:39 51°29.76 2°30.753 13.6 318 14 101790 69
2009-06-19 08:40 51°29.935 2°30.647 17.3 321 14 101800 69
2009-06-19 08:41 51°30.106 2°30.536 12.8 318 14 101810 70
2009-06-19 08:42 51°30.284 2°30.417 16.3 319 14 101810 71
2009-06-19 08:43 51°30.456 2°30.306 12.5 318 13.9 101820 69
2009-06-19 08:44 51°30.631 2°30.188 15.1 321 14 101800 72
2009-06-19 08:45 51°30.8 2°30.074 15.5 317 14 101810 72
2009-06-19 08:46 51°30.972 2°29.963 16.8 321 14 101800 70
2009-06-19 08:47 51°31.149 2°29.848 12.4 321 14 101800 69
2009-06-19 08:48 51°31.319 2°29.738 12.8 320 14 101850 68
2009-06-19 08:49 51°31.491 2°29.626 14.9 315 14 101830 69
2009-06-19 08:50 51°31.663 2°29.519 15 318 14 101810 72
2009-06-19 08:51 51°31.836 2°29.404 13.8 315 14 101810 70
2009-06-19 08:52 51°32.006 2°29.291 13.9 318 14 101820 69
2009-06-19 08:53 51°32.184 2°29.178 15.5 318 14 101840 70
2009-06-19 08:54 51°32.36 2°29.066 13.6 21 13.9 101830 70
2009-06-19 08:55 51°32.537 2°28.955 14.7 317 13.9 101840 71
2009-06-19 08:56 51°32.717 2°28.841 12.8 316 14 101830 73
2009-06-19 08:57 51°32.893 2°28.733 14.5 317 13.9 101820 70
2009-06-19 08:58 51°33.075 2°28.622 13.2 318 13.9 101820 68
2009-06-19 08:59 51°33.255 2°28.508 15 318 13.9 101820 69
2009-06-19 09:00 51°33.43 2°28.399 15.2 315 13.9 101820 70
2009-06-19 09:01 51°33.611 2°28.282 15.6 315 14 101830 72
2009-06-19 09:02 51°33.791 2°28.169 13.6 26 13.9 101810 70
2009-06-19 09:03 51°33.97 2°28.057 14 316 13.9 101830 72
2009-06-19 09:04 51°34.148 2°27.941 13.6 317 13.9 101800 71
2009-06-19 09:05 51°34.326 2°27.828 12.8 26 13.9 101820 70
2009-06-19 09:06 51°34.498 2°27.713 13.5 27 13.9 101800 70
2009-06-19 09:07 51°34.675 2°27.593 12.7 316 13.9 101800 72
2009-06-19 09:08 51°34.856 2°27.478 11.7 19 13.8 101810 71
2009-06-19 09:09 51°35.034 2°27.367 12.3 28 13.8 101830 72
2009-06-19 09:10 51°35.213 2°27.253 15.3 24 13.9 101840 73
2009-06-19 09:11 51°35.392 2°27.141 13.3 27 13.8 101840 72
2009-06-19 09:12 51°35.572 2°27.03 13.4 26 13.8 101830 71
2009-06-19 09:13 51°35.747 2°26.898 15.2 21 13.8 101840 71
2009-06-19 09:14 51°35.919 2°26.76 13.4 27 13.8 101830 73
2009-06-19 09:15 51°36.089 2°26.626 14.4 25 13.8 101820 72
2009-06-19 09:16 51°36.259 2°26.49 12.7 23 13.8 101830 71
2009-06-19 09:17 51°36.429 2°26.353 15.6 22 13.8 101840 71
2009-06-19 09:18 51°36.609 2°26.226 14.8 26 13.8 101830 72
2009-06-19 09:19 51°36.79 2°26.115 15.6 26 13.8 101830 70
2009-06-19 09:20 51°36.97 2°26.004 15.8 22 13.8 101820 71
2009-06-19 09:21 51°37.155 2°25.89 12.9 315 13.8 101830 70
2009-06-19 09:22 51°37.335 2°25.777 13.7 23 13.8 101840 70
2009-06-19 09:23 51°37.514 2°25.665 14.6 26 13.8 101840 72
2009-06-19 09:24 51°37.695 2°25.551 14.4 22 13.8 101830 70
2009-06-19 09:25 51°37.876 2°25.437 15 25 13.8 101830 71
2009-06-19 09:26 51°38.055 2°25.322 15.3 26 13.8 101850 71
2009-06-19 09:27 51°38.239 2°25.206 12.1 25 13.8 101830 70
2009-06-19 09:28 51°38.405 2°25.06 15.4 321 13.8 101850 71
2009-06-19 09:29 51°38.504 2°24.832 13.5 328 13.8 101850 68
2009-06-19 09:30 51°38.529 2°24.554 13.5 332 13.9 101860 68
2009-06-19 09:31 51°38.54 2°24.278 15.3 332 13.9 101860 69
2009-06-19 09:32 51°38.574 2°24.002 13.2 331 13.9 101870 69
2009-06-19 09:33 51°38.624 2°23.73 14.5 328 13.9 101870 69
2009-06-19 09:34 51°38.685 2°23.461 15.2 326 14 101860 69
2009-06-19 09:35 51°38.748 2°23.194 13.6 327 14 101870 69
2009-06-19 09:36 51°38.81 2°22.934 12.6 328 14 101870 70
2009-06-19 09:37 51°38.873 2°22.664 12.5 328 14 101870 70
2009-06-19 09:38 51°38.926 2°22.444 12.7 330 14 101880 69
2009-06-19 09:39 51°38.934 2°22.337 10.2 342 14 101890 69
2009-06-19 09:40 51°38.906 2°22.324 9 9 14 101880 70
2009-06-19 09:41 51°38.853 2°22.33 9.4 -999 13.9 101880 69
2009-06-19 09:42 51°38.821 2°22.29 9.9 348 13.8 101880 69
2009-06-19 09:43 51°38.82 2°22.227 8.4 334 13.9 101890 69
2009-06-19 09:44 51°38.854 2°22.161 11.3 326 14 101900 70
2009-06-19 09:45 51°38.895 2°22.086 10.2 327 14.1 101890 69
2009-06-19 09:46 51°38.938 2°22.003 11.4 322 14.1 101880 68
2009-06-19 09:47 51°38.996 2°21.912 9.7 320 14.2 101890 68
2009-06-19 09:48 51°39.065 2°21.834 10.6 319 14.2 101890 66
2009-06-19 09:49 51°39.14 2°21.769 8.8 28 14.2 101890 66
2009-06-19 09:50 51°39.221 2°21.749 8 20 14.2 101890 68
2009-06-19 09:51 51°39.306 2°21.766 7.7 27 14.2 101890 68
2009-06-19 09:52 51°39.388 2°21.794 8.4 23 14.3 101890 67
2009-06-19 09:53 51°39.467 2°21.824 9.6 21 14.3 101880 65
2009-06-19 09:54 51°39.544 2°21.848 9.2 22 14.5 101890 66
2009-06-19 09:55 51°39.624 2°21.868 7.9 24 14.5 101890 65
2009-06-19 09:56 51°39.705 2°21.897 9 22 14.5 101890 65
2009-06-19 09:57 51°39.785 2°21.937 10.1 245 14.6 101890 64
2009-06-19 09:58 51°39.863 2°21.977 10.1 246 14.6 101890 63
2009-06-19 09:59 51°39.942 2°22.018 8.6 249 14.6 101900 65
2009-06-19 10:00 51°40.023 2°22.072 10.5 251 14.6 101890 63
2009-06-19 10:01 51°40.103 2°22.127 8.2 251 14.6 101900 64
2009-06-19 10:02 51°40.182 2°22.183 10.1 251 14.6 101900 65
2009-06-19 10:03 51°40.253 2°22.234 8.9 250 14.6 101910 63
2009-06-19 10:04 51°40.325 2°22.286 8 250 14.6 101900 64
2009-06-19 10:05 51°40.394 2°22.341 9.6 256 14.6 101890 65
2009-06-19 10:06 51°40.462 2°22.415 4.8 262 14.6 101910 65
2009-06-19 10:07 51°40.521 2°22.506 4.6 265 14.7 101910 67
2009-06-19 10:08 51°40.577 2°22.604 6.5 23 14.6 101920 66
2009-06-19 10:09 51°40.624 2°22.713 4.5 26 14.5 101920 64
2009-06-19 10:10 51°40.654 2°22.833 4.9 26 14.4 101930 65
2009-06-19 10:11 51°40.668 2°22.957 4.6 18 14.4 101920 67
2009-06-19 10:12 51°40.678 2°23.078 4.7 19 14.4 101930 65
2009-06-19 10:13 51°40.691 2°23.203 5.6 22 14.3 101930 65
2009-06-19 10:14 51°40.701 2°23.324 3.8 24 14.5 101930 68
2009-06-19 10:15 51°40.706 2°23.445 5.8 23 14.8 101930 65
2009-06-19 10:16 51°40.695 2°23.552 6.2 43 14.6 101940 65
2009-06-19 10:17 51°40.681 2°23.649 5.9 36 14.5 101930 65
2009-06-19 10:18 51°40.671 2°23.739 6.3 38 14.5 101940 65
2009-06-19 10:19 51°40.657 2°23.819 7.1 29 14.4 101940 64
2009-06-19 10:20 51°40.636 2°23.883 8 26 14.4 101940 64
2009-06-19 10:21 51°40.611 2°23.928 8.3 17 14.4 101940 66
2009-06-19 10:22 51°40.586 2°23.96 7.5 13 14.4 101940 67
2009-06-19 10:23 51°40.57 2°23.981 8.1 9 14.3 101940 66
2009-06-19 10:24 51°40.565 2°24.008 7.4 9 14.3 101940 65
2009-06-19 10:25 51°40.568 2°24.037 7.4 12 14.3 101940 66
2009-06-19 10:26 51°40.55 2°24.101 5.2 22 14.3 101950 64
2009-06-19 10:27 51°40.59 2°24.272 5.1 259 14.4 101940 65
2009-06-19 10:28 51°40.701 2°24.552 5.8 258 14.5 101940 65
2009-06-19 10:29 51°40.822 2°24.844 5.8 256 14.6 101930 64
2009-06-19 10:30 51°40.92 2°24.986 7.6 253 14.8 101940 64
2009-06-19 10:31 51°40.982 2°25.026 7.6 251 14.8 101930 63
2009-06-19 10:32 51°41.013 2°25.062 8 248 14.9 101920 64
2009-06-19 10:33 51°41.038 2°25.103 8.4 251 15 101940 65
2009-06-19 10:34 51°41.06 2°25.146 8.2 251 14.9 101920 62
2009-06-19 10:35 51°41.081 2°25.189 8.8 262 14.9 101930 63
2009-06-19 10:36 51°41.099 2°25.232 8.7 258 14.9 101930 65
2009-06-19 10:37 51°41.117 2°25.274 5.7 263 14.8 101940 64
2009-06-19 10:38 51°41.134 2°25.317 6.9 262 14.8 101940 63
2009-06-19 10:39 51°41.153 2°25.362 4.7 264 14.8 101920 64
2009-06-19 10:40 51°41.173 2°25.404 4.3 263 14.8 101930 65
2009-06-19 10:41 51°41.196 2°25.447 5.6 262 14.7 101930 63
2009-06-19 10:42 51°41.218 2°25.49 6.4 261 14.7 101930 64
2009-06-19 10:43 51°41.238 2°25.531 5.6 261 14.8 101940 64
2009-06-19 10:44 51°41.256 2°25.572 7.8 257 14.8 101930 64
2009-06-19 10:45 51°41.276 2°25.613 5.1 264 14.9 101940 66
2009-06-19 10:46 51°41.296 2°25.653 5.4 263 14.9 101940 65
2009-06-19 10:47 51°41.318 2°25.694 8.7 256 14.9 101930 66
2009-06-19 10:48 51°41.344 2°25.733 9 256 14.9 101940 66
2009-06-19 10:49 51°41.422 2°25.791 4.8 267 14.9 101930 65
2009-06-19 10:50 51°41.502 2°25.995 3.4 20 14.8 101940 66
2009-06-19 10:51 51°41.587 2°26.285 4.3 268 14.8 101950 66
2009-06-19 10:52 51°41.664 2°26.601 2.1 280 14.8 101950 64
2009-06-19 10:53 51°41.733 2°26.925 2 27 14.8 101940 64
2009-06-19 10:54 51°41.79 2°27.252 2.9 22 14.8 101950 64
2009-06-19 10:55 51°41.847 2°27.579 2.2 82 14.9 101950 63
2009-06-19 10:56 51°41.902 2°27.91 1 282 14.9 101950 63
2009-06-19 10:57 51°41.959 2°28.235 2.2 74 15 101950 63
2009-06-19 10:58 51°42.013 2°28.559 2.3 80 15 101940 62
2009-06-19 10:59 51°42.068 2°28.885 1.8 76 15 101950 62
2009-06-19 11:00 51°42.124 2°29.21 1.6 29 15.1 101950 63
2009-06-19 11:01 51°42.179 2°29.536 1.3 79 15.2 101940 61
2009-06-19 11:02 51°42.23 2°29.86 1.5 73 15.3 101940 63
2009-06-19 11:03 51°42.282 2°30.182 2.1 43 15.4 101950 63
2009-06-19 11:04 51°42.338 2°30.503 2.1 73 15.4 101950 63
2009-06-19 11:05 51°42.392 2°30.824 2.7 26 15.3 101960 60
2009-06-19 11:06 51°42.447 2°31.146 1.7 79 15.2 101960 61
2009-06-19 11:07 51°42.504 2°31.467 2.1 27 15.2 101960 62
2009-06-19 11:08 51°42.559 2°31.791 1.5 83 15.3 101960 63
2009-06-19 11:09 51°42.611 2°32.114 0.3 263 15.4 101960 64
2009-06-19 11:10 51°42.668 2°32.438 1.4 83 15.5 101960 64
2009-06-19 11:11 51°42.722 2°32.76 0.9 74 15.5 101960 62
2009-06-19 11:12 51°42.777 2°33.079 1.4 76 15.5 101960 62
2009-06-19 11:13 51°42.83 2°33.402 2 73 15.5 101960 62
2009-06-19 11:14 51°42.887 2°33.723 1.2 77 15.6 101970 62
2009-06-19 11:15 51°42.914 2°34.052 1.9 43 15.6 101960 63
2009-06-19 11:16 51°42.929 2°34.38 1.6 31 15.6 101960 62
2009-06-19 11:17 51°42.947 2°34.706 2.8 25 15.6 101960 65
2009-06-19 11:18 51°42.962 2°35.031 2.4 81 15.6 101960 64
2009-06-19 11:19 51°42.978 2°35.355 2.9 76 15.5 101960 64
2009-06-19 11:20 51°42.993 2°35.684 1.6 32 15.4 101950 63
2009-06-19 11:21 51°43.005 2°36.01 1.6 41 15.4 101950 65
2009-06-19 11:22 51°43.02 2°36.339 1.5 43 15.4 101950 65
2009-06-19 11:23 51°43.035 2°36.664 3.2 32 15.3 101960 64
2009-06-19 11:24 51°43.047 2°36.989 2.2 45 15.3 101960 63
2009-06-19 11:25 51°43.062 2°37.313 3.1 81 15.3 101960 64
2009-06-19 11:26 51°43.079 2°37.639 2.1 77 15.2 101960 64
2009-06-19 11:27 51°43.093 2°37.967 1.6 40 15.1 101960 66
2009-06-19 11:28 51°43.109 2°38.292 1.8 38 15.2 101950 67
2009-06-19 11:29 51°43.123 2°38.617 2.1 73 15.2 101960 64
2009-06-19 11:30 51°43.14 2°38.942 1.8 32 15.1 101960 65
2009-06-19 11:31 51°43.157 2°39.267 2.8 29 15.2 101970 65
2009-06-19 11:32 51°43.173 2°39.59 2.7 38 15.1 101960 66
2009-06-19 11:33 51°43.192 2°39.914 2.4 36 15.2 101960 67
2009-06-19 11:34 51°43.21 2°40.236 2.4 38 15.2 101960 66
2009-06-19 11:35 51°43.216 2°40.559 4.1 31 15.1 101960 66
2009-06-19 11:36 51°43.201 2°40.877 2.6 30 15.2 101970 67
2009-06-19 11:37 51°43.186 2°41.194 4.4 35 15.2 101970 67
2009-06-19 11:38 51°43.169 2°41.513 3.2 34 15.1 101970 66
2009-06-19 11:39 51°43.157 2°41.798 4.9 39 15.1 101970 67
2009-06-19 11:40 51°43.139 2°41.955 7.5 25 15.1 101970 67
2009-06-19 11:41 51°43.115 2°42.016 9.3 10 15 101970 67
2009-06-19 11:42 51°43.097 2°42.045 7.3 4 14.9 101970 67
2009-06-19 11:43 51°43.06 2°42.048 8.3 279 14.7 101960 68
2009-06-19 11:44 51°43.029 2°42.003 9.8 281 14.7 101950 71
2009-06-19 11:45 51°43.015 2°41.927 9 280 14.7 101950 67
2009-06-19 11:46 51°43.033 2°41.84 10.8 283 14.9 101950 69
2009-06-19 11:47 51°43.082 2°41.771 11.6 280 14.8 101950 68
2009-06-19 11:48 51°43.143 2°41.717 8.5 278 14.9 101940 68
2009-06-19 11:49 51°43.209 2°41.671 10.2 285 14.9 101950 68
2009-06-19 11:50 51°43.269 2°41.623 8.7 280 14.9 101950 68
2009-06-19 11:51 51°43.334 2°41.588 10.1 21 15 101950 68
2009-06-19 11:52 51°43.405 2°41.57 7.7 280 15 101960 68
2009-06-19 11:53 51°43.478 2°41.56 8.9 21 15.1 101960 69
2009-06-19 11:54 51°43.551 2°41.549 7.7 249 15.1 101950 67
2009-06-19 11:55 51°43.623 2°41.535 7.4 248 15.2 101960 69
2009-06-19 11:56 51°43.694 2°41.524 8.2 245 15.2 101960 69
2009-06-19 11:57 51°43.76 2°41.519 8.3 278 15.2 101960 68
2009-06-19 11:58 51°43.822 2°41.514 7.9 250 15.3 101950 69
2009-06-19 11:59 51°43.884 2°41.512 7.9 248 15.3 101960 68
2009-06-19 12:00 51°43.945 2°41.512 8 21 15.3 101960 69
2009-06-19 12:01 51°44.006 2°41.508 9.9 281 15.3 101950 67
2009-06-19 12:02 51°44.068 2°41.502 9.2 21 15.4 101950 67
2009-06-19 12:03 51°44.129 2°41.498 9.1 248 15.3 101950 67
2009-06-19 12:04 51°44.189 2°41.493 8.8 247 15.3 101960 68
2009-06-19 12:05 51°44.25 2°41.491 8.2 246 15.3 101960 68
2009-06-19 12:06 51°44.312 2°41.487 7.6 283 15.2 101960 65
2009-06-19 12:07 51°44.373 2°41.486 10.2 247 15.2 101960 64
2009-06-19 12:08 51°44.433 2°41.482 7.5 278 15.2 101960 64
2009-06-19 12:09 51°44.494 2°41.477 8.3 21 15.2 101960 63
2009-06-19 12:10 51°44.555 2°41.485 8.6 259 15.2 101950 64
2009-06-19 12:11 51°44.619 2°41.509 5.7 262 15.2 101960 65
2009-06-19 12:12 51°44.681 2°41.552 4.8 266 15.1 101960 65
2009-06-19 12:13 51°44.739 2°41.607 6.7 22 15.1 101960 64
2009-06-19 12:14 51°44.787 2°41.685 5.6 28 15 101960 66
2009-06-19 12:15 51°44.818 2°41.791 5.5 24 15 101970 65
2009-06-19 12:16 51°44.831 2°41.905 5.6 27 15 101970 66
2009-06-19 12:17 51°44.849 2°42.019 6.4 83 14.9 101980 66
2009-06-19 12:18 51°44.855 2°42.127 6.1 39 14.8 101980 66
2009-06-19 12:19 51°44.845 2°42.227 5.8 31 14.9 101970 69
2009-06-19 12:20 51°44.825 2°42.315 8 31 14.9 101980 67
2009-06-19 12:21 51°44.796 2°42.384 8 23 14.9 101990 64
2009-06-19 12:22 51°44.77 2°42.43 10 16 14.9 101980 66
2009-06-19 12:23 51°44.744 2°42.466 7.2 14 14.9 101980 65
2009-06-19 12:24 51°44.719 2°42.497 9.5 8 14.9 101970 66
2009-06-19 12:25 51°44.697 2°42.523 8.5 10 14.9 101970 67
2009-06-19 12:26 51°44.692 2°42.544 7.3 6 14.9 101980 69
2009-06-19 12:27 51°44.681 2°42.555 8.9 350 14.8 101970 67
2009-06-19 12:28 51°44.681 2°42.488 10 26 14.8 101970 70
2009-06-19 12:29 51°44.775 2°42.332 13.7 286 14.9 101950 70
2009-06-19 12:30 51°44.875 2°42.249 10 20 14.9 101960 68
2009-06-19 12:31 51°44.932 2°42.203 7.3 282 15 101960 67
2009-06-19 12:32 51°44.969 2°42.161 9.1 247 15 101960 69
2009-06-19 12:33 51°45.005 2°42.165 9.2 282 15.1 101970 68
2009-06-19 12:34 51°45.029 2°42.183 7.5 280 15.2 101980 69
2009-06-19 12:35 51°45.049 2°42.204 9.6 279 15.2 101970 67
2009-06-19 12:36 51°45.065 2°42.229 8.9 259 15.2 101970 68
2009-06-19 12:37 51°45.079 2°42.256 8.6 278 15.3 101980 69
2009-06-19 12:38 51°45.093 2°42.283 7.4 262 15.2 101980 66
2009-06-19 12:39 51°45.104 2°42.309 6.7 280 15.2 101990 66
2009-06-19 12:40 51°45.118 2°42.335 4.9 283 15.1 101980 66
2009-06-19 12:41 51°45.132 2°42.359 6.3 284 15.2 101980 69
2009-06-19 12:42 51°45.144 2°42.381 6.8 284 15.1 101980 67
2009-06-19 12:43 51°45.155 2°42.407 6.4 263 15.1 101980 69
2009-06-19 12:44 51°45.167 2°42.43 5.9 286 15.1 101980 71
2009-06-19 12:45 51°45.179 2°42.454 6 265 15.2 101970 70
2009-06-19 12:46 51°45.191 2°42.478 5.5 281 15.1 101980 69
2009-06-19 12:47 51°45.226 2°42.508 5.8 81 15.1 101970 68
2009-06-19 12:48 51°45.251 2°42.637 6.5 15 15.2 101970 70
2009-06-19 12:49 51°45.154 2°42.805 7.1 8 15.2 101960 69
2009-06-19 12:50 51°45.031 2°43.036 8.4 6 15.1 101960 67
2009-06-19 12:51 51°44.9 2°43.259 9.8 10 15 101960 71
2009-06-19 12:52 51°44.765 2°43.481 9.4 7 14.9 101960 69
2009-06-19 12:53 51°44.63 2°43.698 8.4 6 14.9 101970 68
2009-06-19 12:54 51°44.494 2°43.913 9.1 3 14.9 101960 69
2009-06-19 12:55 51°44.361 2°44.126 7.7 6 14.9 101970 68
2009-06-19 12:56 51°44.23 2°44.335 9.4 8 14.9 101960 68
2009-06-19 12:57 51°44.102 2°44.545 9.2 9 14.9 101970 68
2009-06-19 12:58 51°43.973 2°44.757 7.2 6 14.9 101970 67
2009-06-19 12:59 51°43.841 2°44.963 7.5 8 14.9 101970 67
2009-06-19 13:00 51°43.707 2°45.168 7.2 6 14.9 101970 67
2009-06-19 13:01 51°43.575 2°45.373 8.1 5 14.9 101970 69
2009-06-19 13:02 51°43.445 2°45.578 10.4 8 14.9 101970 68
2009-06-19 13:03 51°43.314 2°45.781 7.1 4 14.9 101970 68
2009-06-19 13:04 51°43.183 2°45.981 7.7 8 14.9 101970 67
2009-06-19 13:05 51°43.052 2°46.188 6.9 6 14.9 101970 68
2009-06-19 13:06 51°42.919 2°46.394 7.8 6 14.9 101980 65
2009-06-19 13:07 51°42.783 2°46.593 7.6 6 14.9 101970 67
2009-06-19 13:08 51°42.651 2°46.799 7.7 6 14.9 101980 68
2009-06-19 13:09 51°42.516 2°47.001 7.6 8 15 101970 68
2009-06-19 13:10 51°42.382 2°47.203 8.8 8 15 101970 67
2009-06-19 13:11 51°42.249 2°47.408 9.7 7 15 101980 67
2009-06-19 13:12 51°42.112 2°47.609 8.6 3 15 101980 68
2009-06-19 13:13 51°41.974 2°47.809 8.5 1 15 101980 68
2009-06-19 13:14 51°41.838 2°48.01 9.5 8 14.9 101980 67
2009-06-19 13:15 51°41.701 2°48.209 7.8 7 15 101980 68
2009-06-19 13:16 51°41.566 2°48.407 9.9 7 15 101980 69
2009-06-19 13:17 51°41.427 2°48.603 7.7 8 15 101970 68
2009-06-19 13:18 51°41.289 2°48.798 9.7 5 15 101980 69
2009-06-19 13:19 51°41.152 2°48.998 7.6 2 15 101970 68
2009-06-19 13:20 51°41.013 2°49.196 9 7 15 101980 69
2009-06-19 13:21 51°40.874 2°49.393 7.9 6 14.9 101980 69
2009-06-19 13:22 51°40.733 2°49.596 8.1 6 14.9 101980 70
2009-06-19 13:23 51°40.59 2°49.798 7.9 7 14.9 101980 69
2009-06-19 13:24 51°40.449 2°50.004 9.3 8 14.9 101980 69
2009-06-19 13:25 51°40.311 2°50.202 11.3 9 14.9 101980 68
2009-06-19 13:26 51°40.173 2°50.402 8.6 4 15 101980 69
2009-06-19 13:27 51°40.034 2°50.606 10.8 8 15 101980 70
2009-06-19 13:28 51°39.9 2°50.813 10.3 9 15 101980 68
2009-06-19 13:29 51°39.765 2°51.016 10.3 9 15 101990 68
2009-06-19 13:30 51°39.63 2°51.224 9.9 11 15 101980 67
2009-06-19 13:31 51°39.502 2°51.451 7.7 10 15 101990 66
2009-06-19 13:32 51°39.376 2°51.684 10 14 15 101990 65
2009-06-19 13:33 51°39.251 2°51.917 9.2 12 15.1 101990 68
2009-06-19 13:34 51°39.127 2°52.152 8.5 9 15.1 101990 67
2009-06-19 13:35 51°38.998 2°52.378 10.2 14 15.1 101990 66
2009-06-19 13:36 51°38.875 2°52.601 10.1 12 15.1 101990 66
2009-06-19 13:37 51°38.75 2°52.833 9.4 12 15.1 101990 67
2009-06-19 13:38 51°38.625 2°53.063 9.1 9 15.1 101990 66
2009-06-19 13:39 51°38.499 2°53.285 10.3 12 15.1 102000 66
2009-06-19 13:40 51°38.377 2°53.511 9.7 8 15.1 102000 68
2009-06-19 13:41 51°38.251 2°53.734 10.3 11 15.1 102000 67
2009-06-19 13:42 51°38.125 2°53.958 9.2 13 15.1 102000 67
2009-06-19 13:43 51°37.996 2°54.18 5.9 8 15.2 102000 67
2009-06-19 13:44 51°37.867 2°54.401 9.2 14 15.2 102010 68
2009-06-19 13:45 51°37.74 2°54.626 8 16 15.2 102000 66
2009-06-19 13:46 51°37.617 2°54.85 9.2 19 15.2 102010 67
2009-06-19 13:47 51°37.492 2°55.076 11.6 9 15.2 102010 68
2009-06-19 13:48 51°37.367 2°55.308 8.6 8 15.2 102010 66
2009-06-19 13:49 51°37.244 2°55.54 8.5 10 15.2 102010 66
2009-06-19 13:50 51°37.119 2°55.772 8.8 6 15.2 102020 67
2009-06-19 13:51 51°36.994 2°56.006 7.5 8 15.2 102010 64
2009-06-19 13:52 51°36.867 2°56.239 8.9 13 15.2 102020 68
2009-06-19 13:53 51°36.742 2°56.475 8.9 16 15.2 102010 66
2009-06-19 13:54 51°36.615 2°56.708 10 13 15.2 102010 66
2009-06-19 13:55 51°36.488 2°56.942 8.1 13 15.3 102020 67
2009-06-19 13:56 51°36.36 2°57.174 8.4 10 15.3 102010 65
2009-06-19 13:57 51°36.234 2°57.4 8.2 11 15.3 102020 65
2009-06-19 13:58 51°36.106 2°57.626 10 13 15.3 102010 65
2009-06-19 13:59 51°35.978 2°57.851 9.3 13 15.3 102020 63
2009-06-19 14:00 51°35.853 2°58.079 7.9 11 15.3 102020 64
2009-06-19 14:01 51°35.725 2°58.308 9.4 16 15.3 102010 65
2009-06-19 14:02 51°35.596 2°58.536 9.4 12 15.4 102020 65
2009-06-19 14:03 51°35.473 2°58.767 8.4 15 15.3 102010 65
2009-06-19 14:04 51°35.35 2°58.999 9.6 14 15.3 102020 65
2009-06-19 14:05 51°35.223 2°59.223 11.1 15 15.3 102020 63
2009-06-19 14:06 51°35.079 2°59.416 8.8 8 15.3 102020 64
2009-06-19 14:07 51°34.93 2°59.602 8.8 13 15.3 102020 64
2009-06-19 14:08 51°34.788 2°59.781 11.4 11 15.4 102010 65
2009-06-19 14:09 51°34.682 2°59.924 10.8 18 15.4 102030 65
2009-06-19 14:10 51°34.584 3°0.045 7.8 18 15.4 102030 64
2009-06-19 14:11 51°34.567 3°0.163 6.2 22 15.5 102040 66
2009-06-19 14:12 51°34.594 3°0.204 7.6 28 15.6 102050 66
2009-06-19 14:13 51°34.614 3°0.217 7.1 265 15.6 102050 66
2009-06-19 14:14 51°34.625 3°0.226 7.6 266 15.6 102070 63
2009-06-19 14:15 51°34.631 3°0.232 6.7 263 15.6 102050 67
2009-06-19 14:16 51°34.633 3°0.242 6.5 265 15.6 102050 64
2009-06-19 14:17 51°34.635 3°0.254 6.1 267 15.6 102060 63
2009-06-19 14:18 51°34.634 3°0.264 10.2 268 15.7 102060 64
2009-06-19 14:19 51°34.642 3°0.278 10.6 29 15.6 102060 62
2009-06-19 14:20 51°34.671 3°0.333 8.1 27 15.6 102050 62
2009-06-19 14:21 51°34.645 3°0.4 11.1 17 15.6 102030 63
2009-06-19 14:22 51°34.574 3°0.403 12.5 356 15.6 102020 66
2009-06-19 14:23 51°34.41 3°0.337 12.8 350 15.5 102000 64
2009-06-19 14:24 51°34.233 3°0.246 13.9 349 15.5 101990 66
2009-06-19 14:25 51°34.055 3°0.149 12 349 15.5 102000 64
2009-06-19 14:26 51°33.878 3°0.047 13.5 347 15.5 102000 63
2009-06-19 14:27 51°33.7 2°59.945 15.7 349 15.5 102000 60
2009-06-19 14:28 51°33.524 2°59.842 14.3 346 15.5 102000 61
2009-06-19 14:29 51°33.346 2°59.737 12.1 351 15.5 101990 60
2009-06-19 14:30 51°33.166 2°59.634 12.4 348 15.5 102010 63
2009-06-19 14:31 51°32.984 2°59.536 14.1 349 15.5 102000 63
2009-06-19 14:32 51°32.798 2°59.442 12.8 350 15.5 102000 61
2009-06-19 14:33 51°32.612 2°59.355 11.2 350 15.5 102000 60
2009-06-19 14:34 51°32.425 2°59.27 15.2 354 15.6 101980 61
2009-06-19 14:35 51°32.238 2°59.181 13.6 349 15.6 101980 62
2009-06-19 14:36 51°32.049 2°59.092 14 350 15.6 101990 59
2009-06-19 14:37 51°31.865 2°59.007 14.7 354 15.6 102000 62
2009-06-19 14:38 51°31.676 2°58.915 15.1 352 15.6 102000 60
2009-06-19 14:39 51°31.486 2°58.825 14.3 350 15.7 102000 63
2009-06-19 14:40 51°31.292 2°58.74 16.3 351 15.7 101990 60
2009-06-19 14:41 51°31.101 2°58.653 14.4 354 15.7 102010 61
2009-06-19 14:42 51°30.911 2°58.562 13.5 354 15.7 101980 60
2009-06-19 14:43 51°30.72 2°58.472 15 354 15.7 102000 61
2009-06-19 14:44 51°30.529 2°58.382 14 352 15.7 102000 60
2009-06-19 14:45 51°30.339 2°58.293 14.6 352 15.7 101990 61
2009-06-19 14:46 51°30.149 2°58.201 14.9 353 15.7 101990 59
2009-06-19 14:47 51°29.958 2°58.109 12.3 352 15.8 102000 60
2009-06-19 14:48 51°29.77 2°58.017 15.1 350 15.7 102000 62
2009-06-19 14:49 51°29.582 2°57.926 13.3 352 15.7 102000 63
2009-06-19 14:50 51°29.394 2°57.834 15.3 351 15.7 102010 65
2009-06-19 14:51 51°29.208 2°57.742 14.6 280 15.6 102020 66
2009-06-19 14:52 51°29.018 2°57.654 14.8 350 15.5 102020 67
2009-06-19 14:53 51°28.833 2°57.573 12.6 347 15.5 102010 66
2009-06-19 14:54 51°28.643 2°57.491 14.6 349 15.5 102010 68
2009-06-19 14:55 51°28.451 2°57.403 12 282 15.4 102020 66
2009-06-19 14:56 51°28.258 2°57.319 12.3 349 15.4 102030 66
2009-06-19 14:57 51°28.063 2°57.233 12 349 15.5 102020 65
2009-06-19 14:58 51°27.872 2°57.15 12.9 351 15.5 102020 64
2009-06-19 14:59 51°27.677 2°57.066 15.2 350 15.5 102020 64
2009-06-19 15:00 51°27.483 2°56.981 11.2 279 15.5 102030 63
2009-06-19 15:01 51°27.29 2°56.897 12.9 281 15.6 102010 66
2009-06-19 15:02 51°27.095 2°56.811 12.7 276 15.6 102020 65
2009-06-19 15:03 51°26.905 2°56.728 14.1 353 15.5 102020 64
2009-06-19 15:04 51°26.715 2°56.64 13.3 282 15.6 102020 68
2009-06-19 15:05 51°26.53 2°56.557 15.9 283 15.5 102020 69
2009-06-19 15:06 51°26.338 2°56.472 14.6 349 15.5 102020 71
2009-06-19 15:07 51°26.15 2°56.385 15.3 281 15.4 102010 70
2009-06-19 15:08 51°25.958 2°56.301 12.7 350 15.3 102010 68
2009-06-19 15:09 51°25.766 2°56.213 14.9 348 15.4 102010 68
2009-06-19 15:10 51°25.575 2°56.126 14.6 351 15.4 102030 68
2009-06-19 15:11 51°25.384 2°56.035 13.8 347 15.4 102030 68
2009-06-19 15:12 51°25.191 2°55.945 13.5 279 15.4 102020 65
2009-06-19 15:13 51°24.997 2°55.853 15 348 15.4 102020 65
2009-06-19 15:14 51°24.802 2°55.761 12.6 350 15.5 102020 66
2009-06-19 15:15 51°24.604 2°55.669 13 278 15.5 102020 68
2009-06-19 15:16 51°24.413 2°55.578 14.9 280 15.6 102030 71
2009-06-19 15:17 51°24.216 2°55.484 14.1 347 15.5 102020 69
2009-06-19 15:18 51°24.024 2°55.394 14.4 351 15.5 102030 70
2009-06-19 15:19 51°23.827 2°55.305 14.3 350 15.4 102030 69
2009-06-19 15:20 51°23.63 2°55.218 13.9 281 15.4 102020 67
2009-06-19 15:21 51°23.434 2°55.13 14.2 282 15.5 102030 67
2009-06-19 15:22 51°23.236 2°55.042 13.8 277 15.5 102030 65
2009-06-19 15:23 51°23.04 2°54.952 13.5 282 15.6 102020 68
2009-06-19 15:24 51°22.846 2°54.862 12.9 281 15.6 102020 66
2009-06-19 15:25 51°22.652 2°54.771 14.7 351 15.6 102030 67
2009-06-19 15:26 51°22.457 2°54.694 15 351 15.7 102030 69
2009-06-19 15:27 51°22.261 2°54.635 14 352 15.6 102020 69
2009-06-19 15:28 51°22.063 2°54.575 15.9 349 15.6 102020 71
2009-06-19 15:29 51°21.865 2°54.52 14.3 352 15.5 102020 68
2009-06-19 15:30 51°21.668 2°54.458 13.4 351 15.5 102020 66
2009-06-19 15:31 51°21.47 2°54.396 13.5 349 15.6 102030 68
2009-06-19 15:32 51°21.27 2°54.333 15 350 15.6 102020 66
2009-06-19 15:33 51°21.069 2°54.271 13.3 349 15.6 102030 66
2009-06-19 15:34 51°20.869 2°54.206 14.6 279 15.7 102030 69
2009-06-19 15:35 51°20.669 2°54.145 14.8 351 15.6 102030 69
2009-06-19 15:36 51°20.469 2°54.087 15.2 351 15.6 102030 66
2009-06-19 15:37 51°20.269 2°54.026 13.2 350 15.7 102030 68
2009-06-19 15:38 51°20.068 2°53.939 13.7 350 15.7 102030 68
2009-06-19 15:39 51°19.874 2°53.853 13.9 353 15.7 102030 66
2009-06-19 15:40 51°19.679 2°53.765 14.8 349 15.7 102030 68
2009-06-19 15:41 51°19.484 2°53.675 15 349 15.7 102030 67
2009-06-19 15:42 51°19.284 2°53.586 14.3 278 15.7 102030 65
2009-06-19 15:43 51°19.092 2°53.499 13.8 352 15.8 102040 67
2009-06-19 15:44 51°18.895 2°53.411 13.6 279 15.9 102040 69
2009-06-19 15:45 51°18.7 2°53.319 14.1 349 15.9 102040 66
2009-06-19 15:46 51°18.499 2°53.223 14 350 15.9 102030 68
2009-06-19 15:47 51°18.306 2°53.132 13.4 281 15.9 102040 68
2009-06-19 15:48 51°18.108 2°53.039 13.4 352 15.9 102040 67
2009-06-19 15:49 51°17.907 2°52.944 14.5 280 15.9 102040 68
2009-06-19 15:50 51°17.712 2°52.853 12.9 350 15.9 102040 66
2009-06-19 15:51 51°17.51 2°52.761 15.4 352 15.9 102040 66
2009-06-19 15:52 51°17.314 2°52.67 13.4 352 15.9 102040 67
2009-06-19 15:53 51°17.116 2°52.584 12.4 355 15.9 102040 67
2009-06-19 15:54 51°16.912 2°52.567 12 358 15.9 102050 68
2009-06-19 15:55 51°16.722 2°52.643 10.4 3 15.8 102050 66
2009-06-19 15:56 51°16.534 2°52.747 10.6 3 15.9 102060 69
2009-06-19 15:57 51°16.346 2°52.836 9.7 6 15.9 102050 67
2009-06-19 15:58 51°16.154 2°52.929 10.5 2 15.9 102060 64
2009-06-19 15:59 51°15.972 2°53.027 8.8 6 16 102050 67
2009-06-19 16:00 51°15.792 2°53.143 9.2 7 16.1 102070 68
2009-06-19 16:01 51°15.609 2°53.261 8.6 5 16 102070 68
2009-06-19 16:02 51°15.433 2°53.388 9.8 8 16 102060 69
2009-06-19 16:03 51°15.275 2°53.507 9.8 15 16 102070 68
2009-06-19 16:04 51°15.181 2°53.565 9 20 16.1 102080 68
2009-06-19 16:05 51°15.122 2°53.628 8.8 33 16.2 102080 66
2009-06-19 16:06 51°15.074 2°53.708 8.3 33 16.1 102080 63
2009-06-19 16:07 51°15.017 2°53.812 7.6 29 16.2 102080 62
2009-06-19 16:08 51°14.963 2°53.913 7.6 35 16.3 102080 63
2009-06-19 16:09 51°14.914 2°54.006 8.5 33 16.3 102080 64
2009-06-19 16:10 51°14.864 2°54.098 8.3 35 16.4 102080 65
2009-06-19 16:11 51°14.83 2°54.229 6.2 44 16.4 102080 67
2009-06-19 16:12 51°14.803 2°54.364 7.9 42 16.4 102080 68
2009-06-19 16:13 51°14.78 2°54.506 7.1 32 16.3 102080 66
2009-06-19 16:14 51°14.673 2°54.675 10.6 15 16.3 102070 68
2009-06-19 16:15 51°14.518 2°54.843 6 23 16.3 102070 67
2009-06-19 16:16 51°14.374 2°55.051 8.1 9 16.3 102060 67
2009-06-19 16:17 51°14.255 2°55.266 6.6 7 16.3 102080 70
2009-06-19 16:18 51°14.132 2°55.404 4.5 5 16.4 102080 68
2009-06-19 16:19 51°14.01 2°55.497 6.4 9 16.5 102080 63
2009-06-19 16:20 51°13.887 2°55.586 4.5 280 16.7 102060 63
2009-06-19 16:21 51°13.769 2°55.7 5.3 353 16.8 102070 61
2009-06-19 16:22 51°13.7 2°55.823 4.3 25 16.8 102080 63
2009-06-19 16:23 51°13.67 2°55.927 3.8 29 16.9 102070 62
2009-06-19 16:24 51°13.661 2°55.958 5.6 37 17 102070 60